Regional Weather Roundup
Issued by NWS Upton, NY

Current Version | Previous Version | Text Only | Print | Product List | Glossary On
Versions: 1 2 3 4 5 6 7 8 9 10 11 12 13 14 15 16 17 18 19 20 21 22 23 24 25 26 27 28 29 30 31 32 33 34 35 36 37 38 39 40 41 42 43 44 45 46 47 48 49 50
000
ASUS41 KOKX 290404
RWROKX

REGIONAL WEATHER ROUNDUP
NATIONAL WEATHER SERVICE NEW YORK NY
1200 AM EDT SAT AUG 29 2015

NOTE: "FAIR" INDICATES FEW OR NO CLOUDS BELOW 12,000 FEET WITH NO
SIGNIFICANT WEATHER AND/OR OBSTRUCTIONS TO VISIBILITY.

NYZ071-072-176-178-NJZ106-104-290500-
NEW YORK CITY METRO AREA


CITY           SKY/WX    TMP DP  RH WIND       PRES   REMARKS
CENTRAL PARK   CLEAR     73  51  46 CALM      30.23R
LAGUARDIA APRT PTCLDY    74  56  53 NE3       30.19S
KENNEDY INTL   PTCLDY    71  61  70 SW3       30.21R
NEWARK/LIBERTY PTCLDY    72  56  57 S3        30.20R
BRNX BOT. GARD   N/A     66  54  63 CALM      30.21F
TETERBORO      CLEAR     69  52  54 CALM      30.19S
$$

NYZ177-179-078>081-290500-
LONG ISLAND NEW YORK

CITY           SKY/WX    TMP DP  RH WIND       PRES   REMARKS
FARMINGDALE    CLEAR     71  61  70 CALM      30.20S
ISLIP          PTCLDY    66  57  72 CALM      30.19S
SHIRLEY        CLEAR     63  57  81 CALM      30.21R
WESTHAMPTON    CLEAR     56  52  86 CALM      30.22R
MONTAUK POINT    N/A     71  62  73 VRB3      30.21R
$$

NYZ052-065-067-290500-
HUDSON VALLEY

CITY           SKY/WX    TMP DP  RH WIND       PRES   REMARKS
WHITE PLAINS   CLEAR     63  56  78 W5        30.20S
NEWBURGH       CLEAR     61  57  88 CALM      30.22S
MONTGOMERY     CLEAR     57  54  89 CALM      30.20F
POUGHKEEPSIE   PTCLDY    62  57  83 CALM      30.19S
ALBANY         PTCLDY    63  53  70 S5        30.19F
$$

NJZ001-105-106-008-010-013-015-019>022-104-290500-
NEW JERSEY

CITY           SKY/WX    TMP DP  RH WIND       PRES   REMARKS
NEWARK/LIBERTY PTCLDY    72  56  57 S3        30.20R
TETERBORO      CLEAR     69  52  54 CALM      30.19S
CALDWELL       CLEAR     63  54  72 CALM      30.21S
MORRISTOWN     CLEAR     54  50  87 CALM      30.21S
SOMERVILLE     CLEAR     59  56  89 NW5       30.19S
SUSSEX         CLEAR     54  52  93 CALM      30.22S
ANDOVER          N/A     56  55  97 CALM      30.22S
TRENTON        CLEAR     62  56  80 N5        30.20S
MILLVILLE      CLEAR     61  58  90 CALM      30.20R
ATLANTIC CITY  CLEAR     67  59  75 VRB3      30.20S
WRIGHTSTOWN    CLEAR     60  58  92 CALM      30.18R
TOMS RIVER     CLEAR     57  52  82 CALM      30.21R
BELMAR         CLEAR     64  54  68 CALM      30.20S
$$

PAZ047>061-062-071-290500-
EASTERN PENNSYLVANIA

CITY           SKY/WX    TMP DP  RH WIND       PRES   REMARKS
PHILADELPHIA   CLEAR     71  58  63 CALM      30.20R
ALLENTOWN      CLEAR     60  55  83 N3        30.21S
SCRANTON       PTCLDY    61  53  75 E5        30.22S
$$

CTZ002-004>006-009-010-012-RIZ004-006-007-MAZ004-011-015-290500-
SOUTHERN NEW ENGLAND
 IN CT

CITY           SKY/WX    TMP DP  RH WIND       PRES   REMARKS
BRADLEY INTL   MOCLDY    63  56  78 CALM      30.18S
HARTFORD       PTCLDY    65  59  81 S3        30.19S
DANBURY        CLEAR     56  52  86 SW3       30.22S
WTRBRY/OXFORD  CLEAR     57  48  72 CALM      30.23S
BRIDGEPORT     MOCLDY    67  56  67 CALM      30.20R
MERIDEN        CLEAR     59  54  83 CALM      30.20S
NEW HAVEN      CLEAR     61  56  83 CALM      30.20S
CHESTER        NOT AVBL
GROTON         CLOUDY    64  61  90 CALM      30.19R
WILLIMANTIC    MOCLDY    60  56  86 CALM      30.20S

 IN RI

CITY           SKY/WX    TMP DP  RH WIND       PRES   REMARKS
PROVIDENCE     CLEAR     66  56  70 W8        30.19R
BLOCK ISLAND   CLEAR     66  64  94 SW8       30.20R
WESTERLY       CLEAR     64  59  83 CALM      30.20R

 IN MA

CITY           SKY/WX    TMP DP  RH WIND       PRES   REMARKS
BOSTON         PTCLDY    71  57  61 W6        30.16S
WORCESTER      CLEAR     61  54  77 W9        30.20F
WESTFIELD      CLEAR     58  56  93 CALM      30.19S
PROVINCETOWN   MOCLDY    66  57  72 SW7       30.17S
NANTUCKET      CLEAR     63  59  87 SW6       30.19R
$$

ANZ330-335-338-340-345-350-353-355-290500-
COASTAL MARINE OBSERVATIONS


STATION/POSITION TIME  SKY/WX   TEMP    WIND        PRES    VSBY  WAVE
                                AIR SEA DIR/SP/G                  HT/PER
                 (UTC)          (F)     (DEG/KT/KT) (MB)    (MI)  (FT/S)
NY HARB ENTRANCE 0250            74 76  240/ 12/ 14 1022.1          3/12
4S FIRE IS       NOT AVBL
20S FIRE ISLAND  0250            74 75  240/  8/ 10 1022.5          2/11
GREAT SOUTH BAY  0300            74 78  240/  8/ 10   N/A
23SW MTP         0350            72 73  260/  8/ 10 1022.3          2/11
HUDSON CANYON    NOT AVBL
KINGS POINT      NOT AVBL
EXECUTION ROCKS  0300            73      CALM  /  2   N/A
CENTRAL LI SOUND NOT AVBL
EASTERN LI SOUND 0300            71 71  270/  6/  8   N/A
ROBBINS REEF     NOT AVBL
$$


>>>>>>>>>>>>>>>>>>>>>>>>>>>> KEY <<<<<<<<<<<<<<<<<<<<<<<<<<<
>                                                          <
>     SKY/WX - SKY CONDITION/PRESENT WEATHER               <
>     TMP    - TEMPERATURE IN FAHRENHEIT                   <
>     DP     - DEWPOINT IN FAHRENHEIT                      <
>     RH     - RELATIVE HUMIDITY IN PERCENT                <
>     WIND   - DIRECTION AND SPEED IN MPH                  <
>     PRES   - MEAN SEA LEVEL PRESSURE IN INCHES OF HG     <
>     WCI    - WIND CHILL INDEX                            <
>     VSB    - VISIBILITY IN MILES                         <
>     HX     - HEAT INDEX                                  <
>     TC     - TEMPERATURE IN CELSIUS                      <
>     VRB    - VARIABLE WIND DIRECTION                     <
>                                                          <
>>>>>>>>>>>>>>>>>>>>>>>>>>>> KEY <<<<<<<<<<<<<<<<<<<<<<<<<<<





USA.gov is the U.S. government's official web portal to all federal, state and local government web resources and services.